Showing default

COSMOS 2247, 22648

Orbit data source: Space-Track

COSMOS 2247, 22648 is a payload satellite owned by VKS (CIS) in LEO that was launched on Tue, 11 May 1993 UTC via a TSIKLON-3 launch vehicle from the Plesetsk Missile And Space Complex (PKMTR). Payload-class satellites include a variety of spacecraft equipped with specific instruments for various scientific and technological missions. These include communications satellites like Starlink; space stations such as the ISS; scientific satellites like the Hubble; Earth observation satellites from companies like Planet Labs, Umbra, and HawkEye 360; GPS; miniature CubeSats for education and research; and military/defense satellites.

Loading next visibility...
Identifier
22648, 1993-030C
Orbit
LEO
Country
Flag of CISCIS
Related business
Manufacturer
NPO PM
Mission
Defense Communications
Bus & Motor
STRELA-3, Unknown motor
Mass
225 kg wet, 225 kg dry
Launch date (UTC)
1993-05-11 (33 years ago)
Launch vehicle
TSIKLON-3
Launch site
Plesetsk Missile And Space Complex (PKMTR)
Object type
Payload
Rocket body
Debris
Shape & HBR
Cyl, 0.8 m
Radar Cross Section
1.257 m², Large (>1 m²)

Expand to show TLE details & history
Last TLE update: 11 hours ago

TLE from 11 hours ago
0 COSMOS 2247
1 22648U 93030C   26124.56983720  .00000025  00000-0  79371-4 0  9990
2 22648  82.5813 343.8937 0008874  41.6849  19.5961 12.63278482520570
Epoch: 2026-05-04T13:40Z
TLE epoch observation values (Epoch: 2026-05-04T13:40:33.934Z)
Latitude
60.53813°
Longitude
-70.44527°
Altitude
1,413.206 km
Speed
7.162 km/s
True Right ascension
23h 48m 36s
True Declination
60° 24' 11"
Sunlit
Object was in daylight at epoch
Visualization orbit readout
Latitude
Unknown
Longitude
Unknown
Altitude
Unknown
Speed
Unknown
Apparent Right ascension
Unknown
Apparent Declination
Unknown
Sunlit
N/A
Visualization observer readout
Local Sidereal Time
08:59:04
Azimuth
Unknown
Elevation
Unknown
Doppler factor
Unknown
Orbital elements
Apogee altitude
1,413.669 km
Perigee altitude
1,399.852 km
Semi-major axis
7,784.898 km
Eccentricity
0.00089
Inclination
82.5813°
RAAN
343.8937°
Arg. of periapsis
41.6849°
True anomaly
19.63024°
Mean anomaly
19.5961°
Eccentric anomaly
19.61317°
Mean motion
3.15983 °/min
Orbital period
113.93 mins
BSTAR
0.000079371
Loading maneuver chart data...
Computing Atmospheric mass density...
Loading historical data...
Loading historical data...
Loading historical data...
Loading historical data...
Loading historical data...
Loading historical data...
Loading historical data...

Documentation

Showing up to 5 results
|